Home > Weather > Szeged > Past weeks

Flag for Hungary Past Weather in Szeged, Hungary — Yesterday and Last 2 Weeks

Now
79 °F

Scattered clouds.


Feels Like: 81 °F
Forecast: 67 / 89 °F
Wind: 1 mph from West

Location: Szeged

Current Time: Jul 27, 2016 at 11:40:33 AM

Latest Report: Jul 27, 2016 at 11:00 AM


Visibility: 13 mi

Pressure: 30.02 "Hg

Humidity: 68%

Dew Point: 67 °F

Location of SzegedLocation

Past Weather in Szeged — Graph

°F

Szeged Temperature Yesterday

Maximum temperature yesterday: 82 °F (at 12:00 PM)
Minimum temperature yesterday: 67 °F (at 10:00 PM)
Average temperature yesterday: 71 °F

High & Low Weather Summary for the Past Weeks

 TemperatureHumidityPressure
High95 °F (Jul 13, 4:00 PM)100% (Jul 16, 8:00 AM)30.11 "Hg (Jul 16, 8:00 AM)
Low53 °F (Jul 17, 2:00 AM)30% (Jul 12, 6:00 PM)29.66 "Hg (Jul 14, 7:00 AM)
Average72 °F72%29.96 "Hg
* Reported Jul 12 10:00 AM — Jul 27 10:00 AM, Szeged, Weather by CustomWeather, © 2016

Note: Actual official high and low records may vary slightly from our data, if they occured in-between our weather recording intervals... More about our weather records

Advertising

Szeged Weather History for the Previous 24 Hours

Scroll right to see more
 ConditionsComfort  
Time TempWeatherWind HumidityBarometerVisibility
10:00 AM
Wed, Jul 27
78 °FPassing clouds.1 mph72%30.01 "Hg12 mi
9:00 AM74 °FPassing clouds.No wind90%30.01 "Hg5 mi
8:00 AM69 °FFog.1 mph99%30.02 "Hg2 mi
7:00 AM65 °FFog.No wind99%30.01 "Hg1 mi
6:00 AM62 °FFog.No wind99%30.01 "Hg0 mi
5:00 AM63 °FFog.No wind99%30.01 "Hg0 mi
4:00 AM63 °FFog.No wind99%30.01 "Hg0 mi
3:00 AM63 °FFog.No wind99%30.01 "Hg1 mi
2:00 AM64 °FFog.No wind99%30.01 "Hg1 mi
10:00 PM
Tue, Jul 26
67 °FFog.No wind99%30.01 "Hg2 mi
9:00 PM70 °FFog.1 mph97%30.00 "Hg3 mi
8:00 PM71 °FOvercast.No wind93%29.99 "Hg9 mi
7:00 PM71 °FOvercast.No wind93%29.98 "Hg9 mi
6:00 PM70 °FSprinkles. Overcast.No wind97%29.98 "Hg7 mi
5:00 PM69 °FSprinkles. Overcast.1 mph97%30.00 "Hg6 mi
4:00 PM69 °FThundershowers. Overcast.1 mph97%29.99 "Hg6 mi
3:00 PM69 °FThundershowers. Overcast.2 mph96%30.01 "Hg7 mi
2:00 PM69 °FThundershowers. Overcast.5 mph88%30.01 "Hg9 mi
1:00 PM72 °FThundershowers. Overcast.6 mph77%30.01 "Hg4 mi
12:00 PM82 °FOvercast.2 mph60%30.00 "Hg19 mi
11:00 AM81 °FOvercast.3 mph63%29.99 "Hg16 mi
Weather by CustomWeather, © 2016

See weather overviewHow to use our weather pages